Tracking 30923 objects as of 1-Jul-2025
HD Live streaming from Space Station
objects crossing your sky now

DELTA 1 DEB

Track DELTA 1 DEB now!
10-day predictions


NORAD ID: 21515
Int'l Code: 1975-052GL
Perigee: 1,067.7 km
Apogee: 1,481.6 km
Inclination: 99.7 °
Period: 110.9 minutes
Semi major axis: 7645 km
RCS: 0.0773 m2 (small)
Launch date: June 12, 1975
Source: United States (US)
Launch site: AIR FORCE WESTERN TEST RANGE (AFWTR)

Note: This is SATELLITE DEBRIS
Your satellite tracking list
Your tracking list is empty




NASA's NSSDC Master Catalog

Two Line Element Set (TLE):
1 21515U 75052GL  25181.19011753 -.00000354  00000-0 -89909-3 0  9999
2 21515  99.7393 263.5886 0270624 311.5868 103.3291 12.98617960616996
Source of the keplerian elements: AFSPC